Location: Hepcat Sky Observatory
(29.9800°N, 95.6500°W)
Time: 20:25:28
(UTC-06:00)

Cosmos 2366 rocket - Visible Passes

Search period start: 05 March 2015 00:00
Search period end: 15 March 2015 01:00
Orbit: 956 x 997 km, 82.9° (Epoch: 04 March)

Date Brightness Start Highest point End Pass type
(mag) Time Alt. Az. Time Alt. Az. Time Alt. Az.
05 Mar 5.2 18:53:11 10° NNE 18:57:20 19° ENE 19:01:45 10° ESE visible
05 Mar 4.8 20:37:03 10° NNW 20:43:07 49° W 20:49:04 10° SSW visible
06 Mar 4.5 19:17:39 10° NNE 19:23:24 37° ENE 19:29:10 10° SE visible
06 Mar 6.0 21:03:34 10° NW 21:08:37 25° W 21:13:25 10° SW visible
07 Mar 3.9 19:42:54 10° N 19:49:13 73° E 19:55:27 10° S visible
07 Mar 6.8 21:31:50 10° WNW 21:34:02 11° W 21:35:42 10° W visible
08 Mar 4.6 21:08:40 10° NNW 21:14:50 58° W 21:20:55 10° S visible
09 Mar 4.7 19:49:33 10° NNE 19:55:02 32° ENE 20:00:33 10° SE visible
09 Mar 5.8 21:35:01 10° NNW 21:40:21 29° W 21:45:31 10° SW visible
10 Mar 4.0 20:14:39 10° N 20:20:53 63° E 20:27:03 10° SSE visible
10 Mar 6.8 22:02:32 10° NW 22:05:47 14° W 22:08:36 10° WSW visible
11 Mar 4.4 20:40:18 10° NNW 20:46:33 68° W 20:52:42 10° S visible
12 Mar 5.7 21:06:30 10° NNW 21:12:05 34° W 21:17:31 10° SSW visible
13 Mar 4.2 19:46:26 10° N 19:52:33 53° E 19:58:37 10° SSE visible
13 Mar 6.7 21:33:35 10° NW 21:37:32 17° W 21:41:07 10° WSW visible
14 Mar 4.2 20:11:58 10° N 20:18:16 79° W 20:24:27 10° S visible
